CW1631 Weather Reports


Display with metric or nautical units.
time (UTC)temp
F
wind
direction
speed
MPH
gust
MPH
rain 1hr
in
rain 24hr
in
rain mn
in
humidity
%
barometer
mb
20260508052913 40 312 1.0 1.0 0.00 0.00 0.00 84 1010.8
20260508052411 40 303 2.0 2.0 0.00 0.00 0.00 83 1010.7
20260508051906 40 295 1.0 2.0 0.00 0.00 0.00 83 1010.8
20260508051403 40 286 1.0 1.0 0.00 0.00 0.00 82 1010.8
20260508050859 41 307 1.0 2.0 0.00 0.00 0.00 81 1010.8
20260508050356 41 327 1.0 1.0 0.00 0.00 0.00 80 1010.9
20260508045852 41 217 2.0 2.0 0.00 0.00 0.00 81 1011.1
20260508045350 40 234 2.0 2.0 0.00 0.00 0.00 83 1010.9
20260508044847 40 240 3.0 5.0 0.00 0.00 0.00 85 1011.0
20260508044343 39 273 1.0 1.0 0.00 0.00 0.00 85 1011.0
20260508043839 39 260 0.0 0.0 0.00 0.00 0.00 85 1011.1
20260508043337 39 274 0.0 0.0 0.00 0.00 0.00 84 1011.0
20260508042833 39 265 0.0 0.0 0.00 0.00 0.00 84 1010.8
20260508042331 39 290 0.0 0.0 0.00 0.00 0.00 84 1010.8
20260508041828 39 269 0.0 0.0 0.00 0.00 0.00 83 1010.7
20260508041324 39 278 0.0 0.0 0.00 0.00 0.00 82 1010.8
20260508040820 39 267 0.0 0.0 0.00 0.00 0.00 82 1010.8
20260508040318 39 262 0.0 0.0 0.00 0.00 0.00 82 1010.8
20260508035815 39 270 0.0 0.0 0.00 0.01 0.01 81 1010.6
20260508035313 39 270 0.0 0.0 0.00 0.01 0.01 82 1010.8
20260508034809 39 270 0.0 0.0 0.00 0.01 0.01 83 1010.8
20260508034306 38 275 0.0 0.0 0.00 0.01 0.01 85 1010.7
20260508033803 38 268 0.0 1.0 0.00 0.01 0.01 86 1010.7
20260508033302 38 281 0.0 0.0 0.00 0.01 0.01 86 1010.8
20260508032759 38 281 0.0 1.0 0.00 0.01 0.01 86 1010.7
20260508032256 38 270 0.0 0.0 0.00 0.01 0.01 87 1010.6
20260508031752 38 258 0.0 0.0 0.00 0.01 0.01 87 1010.5
20260508031249 38 265 0.0 0.0 0.00 0.01 0.01 87 1010.4
20260508030745 38 273 0.0 0.0 0.00 0.01 0.01 86 1010.4
20260508030243 38 274 0.0 0.0 0.00 0.01 0.01 86 1010.4
20260508025739 38 277 0.0 0.0 0.00 0.01 0.01 85 1010.3
20260508025236 38 277 0.0 0.0 0.00 0.01 0.01 84 1010.1
20260508024732 39 277 0.0 0.0 0.00 0.01 0.01 83 1010.0
20260508024229 39 278 0.0 0.0 0.00 0.01 0.01 83 1010.1
20260508023726 39 291 0.0 1.0 0.00 0.01 0.01 82 1010.2
20260508023224 40 308 0.0 1.0 0.00 0.01 0.01 80 1010.4
20260508022719 40 296 0.0 1.0 0.00 0.01 0.01 80 1010.2
20260508022216 40 275 1.0 1.0 0.00 0.01 0.01 80 1010.2
20260508021713 41 312 0.0 0.0 0.00 0.01 0.01 78 1010.1
20260508021208 41 66 1.0 1.0 0.00 0.01 0.01 78 1010.1
20260508020706 41 359 1.0 1.0 0.00 0.01 0.01 78 1010.1
20260508020203 42 297 0.0 0.0 0.00 0.01 0.01 76 1010.1
20260508015700 42 264 0.0 1.0 0.00 0.01 0.01 74 1010.1
20260508015157 42 262 0.0 0.0 0.00 0.01 0.01 75 1010.2
20260508014654 42 257 0.0 0.0 0.00 0.01 0.01 74 1010.1
20260508014149 42 292 0.0 0.0 0.00 0.01 0.01 73 1009.9
20260508013646 43 292 0.0 0.0 0.00 0.01 0.01 71 1009.6
20260508013143 44 290 0.0 0.0 0.00 0.01 0.01 70 1009.7
20260508012641 44 290 0.0 0.0 0.00 0.01 0.01 70 1009.9
20260508012137 45 289 0.0 0.0 0.00 0.01 0.01 69 1009.9
20260508011636 46 182 1.0 2.0 0.00 0.01 0.01 64 1009.9
20260508011133 46 167 1.0 2.0 0.00 0.01 0.01 63 1009.7
20260508010630 46 271 0.0 0.0 0.00 0.01 0.01 59 1009.8
20260508010128 47 283 0.0 1.0 0.00 0.01 0.01 58 1009.7
20260508005624 47 12 4.0 5.0 0.00 0.01 0.01 58 1009.9
20260508005121 46 310 3.0 3.0 0.00 0.01 0.01 61 1009.7
20260508004616 47 288 1.0 1.0 0.00 0.01 0.01 63 1009.6
20260508004113 47 310 1.0 1.0 0.00 0.01 0.01 63 1009.5
20260508003609 48 335 2.0 2.0 0.00 0.01 0.01 65 1009.5
20260508003108 48 291 2.0 2.0 0.00 0.01 0.01 58 1009.5
20260508002604 48 351 1.0 2.0 0.00 0.01 0.01 59 1009.4
20260508002102 48 305 1.0 1.0 0.00 0.01 0.01 61 1009.3
20260508001556 48 306 1.0 1.0 0.00 0.01 0.01 59 1009.2
20260508001053 49 303 1.0 1.0 0.00 0.01 0.01 56 1009.3
20260508000549 50 273 0.0 0.0 0.00 0.01 0.01 54 1009.3
20260508000047 50 298 1.0 1.0 0.00 0.01 0.01 51 1008.9
20260507235543 51 285 1.0 1.0 0.00 0.01 0.01 50 1008.9
20260507235041 51 268 0.0 1.0 0.00 0.01 0.01 49 1008.9
20260507234536 51 286 0.0 0.0 0.00 0.01 0.01 50 1009.2
20260507234033 51 284 0.0 0.0 0.00 0.01 0.01 49 1008.9
20260507233530 51 278 1.0 1.0 0.00 0.01 0.01 49 1008.9
20260507233029 51 280 2.0 2.0 0.00 0.01 0.01 48 1008.8
20260507232525 51 318 3.0 5.0 0.00 0.01 0.01 48 1008.7
20260507232022 52 273 3.0 3.0 0.00 0.01 0.01 48 1008.8
20260507231518 52 328 4.0 5.0 0.00 0.01 0.01 47 1008.8
20260507231016 52 340 3.0 3.0 0.00 0.01 0.01 46 1008.8
20260507230513 52 278 1.0 1.0 0.00 0.01 0.01 49 1008.8
20260507230009 52 332 3.0 5.0 0.00 0.01 0.01 49 1008.9
20260507225504 52 300 4.0 5.0 0.00 0.01 0.01 48 1008.7
20260507225000 52 296 2.0 3.0 0.00 0.01 0.01 48 1008.7
20260507224456 52 291 2.0 2.0 0.00 0.01 0.01 48 1008.7
20260507223953 52 306 1.0 1.0 0.00 0.01 0.01 47 1008.8
20260507223449 53 322 5.0 7.0 0.00 0.01 0.01 47 1008.6
20260507222946 52 278 5.0 7.0 0.00 0.01 0.01 46 1008.7
20260507222437 53 272 3.0 3.0 0.00 0.01 0.01 46 1008.8
20260507221934 53 288 3.0 3.0 0.00 0.01 0.01 48 1008.7
20260507221431 53 308 5.0 7.0 0.00 0.01 0.01 47 1008.7
20260507220926 53 290 10.0 11.0 0.00 0.01 0.01 47 1008.8
20260507220425 53 330 6.0 7.0 0.00 0.01 0.01 46 1008.7
20260507215921 53 349 6.0 8.0 0.00 0.01 0.01 46 1009.1
20260507215418 53 283 4.0 5.0 0.00 0.01 0.01 46 1008.9
20260507214915 53 260 4.0 5.0 0.00 0.01 0.01 46 1009.1
20260507214413 54 315 9.0 11.0 0.00 0.01 0.01 46 1009.2
20260507213908 53 289 3.0 3.0 0.00 0.01 0.01 48 1009.2
20260507213405 54 306 6.0 8.0 0.00 0.01 0.01 47 1008.9
20260507212902 54 346 8.0 9.0 0.00 0.01 0.01 45 1009.1
20260507212358 55 319 4.0 5.0 0.00 0.01 0.01 47 1009.3
20260507211854 54 238 5.0 7.0 0.00 0.01 0.01 46 1009.1
20260507211351 55 301 4.0 5.0 0.00 0.01 0.01 47 1008.9
20260507210848 55 291 9.0 9.0 0.00 0.01 0.01 46 1008.9
20260507210345 55 274 7.0 11.0 0.00 0.01 0.01 46 1009.1
20260507205841 54 244 5.0 6.0 0.00 0.01 0.01 47 1009.1
20260507205338 54 271 8.0 9.0 0.00 0.01 0.01 47 1008.9
20260507204835 54 334 3.0 3.0 0.00 0.01 0.01 50 1009.2
20260507204332 54 318 2.0 3.0 0.00 0.01 0.01 48 1009.2
20260507203829 54 307 5.0 6.0 0.00 0.01 0.01 49 1008.9
20260507203327 55 356 8.0 10.0 0.00 0.01 0.01 47 1008.8
20260507202823 55 213 3.0 3.0 0.00 0.01 0.01 46 1008.8
20260507202320 53 304 7.0 9.0 0.00 0.01 0.01 46 1008.9
20260507201815 54 288 7.0 8.0 0.00 0.01 0.01 46 1008.9
20260507201311 54 326 4.0 5.0 0.00 0.01 0.01 46 1008.8
20260507200808 54 303 3.0 3.0 0.00 0.01 0.01 46 1008.9
20260507200303 56 298 6.0 7.0 0.00 0.01 0.01 45 1009.1
20260507195800 55 262 3.0 3.0 0.00 0.01 0.01 44 1009.1
20260507195257 55 299 4.0 5.0 0.00 0.01 0.01 47 1008.8
20260507194755 55 305 4.0 6.0 0.00 0.01 0.01 47 1009.2
20260507194250 55 287 4.0 6.0 0.00 0.01 0.01 45 1009.4
20260507193747 54 315 12.0 14.0 0.00 0.01 0.01 47 1009.5
20260507193244 54 3 7.0 8.0 0.00 0.01 0.01 48 1009.6
20260507192740 54 24 8.0 11.0 0.00 0.01 0.01 48 1009.3
20260507192237 54 2 10.0 11.0 0.00 0.01 0.01 48 1009.6
20260507191733 54 290 3.0 5.0 0.00 0.01 0.01 48 1009.5
20260507191230 54 262 5.0 8.0 0.00 0.01 0.01 45 1009.7
20260507190727 56 295 9.0 13.0 0.00 0.01 0.01 44 1009.6
20260507190225 54 233 3.0 3.0 0.00 0.01 0.01 48 1009.9
20260507185724 54 283 6.0 8.0 0.00 0.01 0.01 45 1009.7
20260507185220 54 292 16.0 21.0 0.00 0.01 0.01 45 1009.8
20260507184718 54 320 3.0 3.0 0.00 0.01 0.01 48 1009.9
20260507184215 56 298 3.0 5.0 0.00 0.01 0.01 47 1010.0
20260507183711 56 253 5.0 7.0 0.00 0.01 0.01 45 1009.7
20260507183208 56 275 8.0 10.0 0.00 0.01 0.01 44 1009.7
20260507182706 54 331 5.0 7.0 0.00 0.01 0.01 44 1009.8
20260507182201 53 15 3.0 3.0 0.00 0.01 0.01 45 1009.8
20260507181657 52 328 9.0 13.0 0.00 0.01 0.01 47 1009.9
20260507181154 52 301 7.0 9.0 0.00 0.01 0.01 46 1010.2
20260507180651 53 335 12.0 15.0 0.00 0.01 0.01 46 1010.2
20260507180148 52 337 10.0 11.0 0.00 0.01 0.01 47 1010.1
20260507175643 52 333 6.0 9.0 0.00 0.01 0.01 46 1010.3
20260507175141 52 266 6.0 8.0 0.00 0.01 0.01 47 1010.1
20260507174638 52 326 7.0 10.0 0.00 0.01 0.01 46 1010.1
20260507174136 52 325 6.0 7.0 0.00 0.01 0.01 47 1010.1
20260507173633 53 291 7.0 9.0 0.00 0.01 0.01 46 1010.2
20260507173130 54 293 8.0 10.0 0.00 0.01 0.01 47 1010.3
20260507172626 54 287 5.0 14.0 0.00 0.01 0.01 47 1010.1
20260507172124 55 219 5.0 6.0 0.00 0.01 0.01 44 1010.2
20260507171618 53 262 2.0 2.0 0.00 0.01 0.01 49 1010.2
20260507171115 53 327 4.0 5.0 0.00 0.01 0.01 48 1010.3
20260507170613 52 323 9.0 11.0 0.00 0.01 0.01 46 1010.4
20260507170110 52 346 10.0 11.0 0.00 0.01 0.01 46 1010.2
20260507165605 52 324 13.0 17.0 0.00 0.01 0.01 47 1010.3
20260507165101 52 278 7.0 9.0 0.00 0.01 0.01 48 1010.4
20260507164557 54 308 11.0 14.0 0.00 0.01 0.01 45 1010.6
20260507164055 54 292 3.0 5.0 0.00 0.01 0.01 46 1010.4
20260507163552 53 269 1.0 2.0 0.00 0.01 0.01 51 1010.7
20260507163050 52 265 5.0 7.0 0.00 0.01 0.01 51 1010.6
20260507162550 53 274 7.0 8.0 0.00 0.01 0.01 47 1010.7
20260507162047 53 319 7.0 8.0 0.00 0.01 0.01 48 1010.6
20260507161543 53 309 4.0 5.0 0.00 0.01 0.01 50 1010.9
20260507161040 52 208 1.0 1.0 0.00 0.01 0.01 49 1010.8
20260507160536 53 233 9.0 10.0 0.00 0.01 0.01 50 1010.8
20260507160033 52 285 5.0 6.0 0.00 0.01 0.01 51 1011.0
20260507155528 52 298 4.0 5.0 0.00 0.01 0.01 47 1010.9
20260507155026 51 326 1.0 2.0 0.00 0.01 0.01 48 1011.1
20260507154522 53 300 6.0 7.0 0.00 0.01 0.01 47 1011.2
20260507154019 53 290 2.0 3.0 0.00 0.01 0.01 50 1011.0
20260507153516 53 318 6.0 7.0 0.00 0.01 0.01 48 1011.2
20260507153012 52 239 4.0 5.0 0.00 0.01 0.01 50 1011.3
20260507152508 52 285 3.0 5.0 0.00 0.01 0.01 52 1011.1
20260507152005 51 355 4.0 6.0 0.00 0.01 0.01 47 1011.2
20260507151501 52 284 3.0 6.0 0.00 0.01 0.01 46 1011.4
20260507150958 52 300 4.0 5.0 0.00 0.01 0.01 47 1011.6
20260507150455 51 242 3.0 5.0 0.00 0.01 0.01 50 1011.5
20260507145951 51 355 4.0 5.0 0.00 0.01 0.01 49 1011.7
20260507145447 50 332 7.0 10.0 0.00 0.01 0.01 51 1011.7
20260507144944 50 316 2.0 3.0 0.00 0.01 0.01 51 1011.6
20260507144441 50 329 6.0 7.0 0.00 0.01 0.01 50 1012.0
20260507143938 50 334 7.0 8.0 0.00 0.01 0.01 51 1011.8
20260507143436 50 284 3.0 5.0 0.00 0.01 0.01 54 1011.7
20260507142932 50 290 3.0 3.0 0.00 0.01 0.01 53 1011.8
20260507142428 50 352 3.0 3.0 0.00 0.01 0.01 55 1012.0
20260507141925 49 286 4.0 5.0 0.00 0.01 0.01 52 1011.9
20260507141421 48 47 3.0 5.0 0.00 0.01 0.01 56 1011.8
20260507140918 49 321 6.0 8.0 0.00 0.01 0.01 56 1012.0
20260507140414 48 269 2.0 2.0 0.00 0.01 0.01 57 1011.7
20260507135913 48 307 4.0 5.0 0.00 0.01 0.01 54 1012.1
20260507135409 48 351 4.0 5.0 0.00 0.01 0.01 57 1011.9
20260507134906 48 281 3.0 3.0 0.00 0.01 0.01 59 1012.1
20260507134402 48 263 1.0 1.0 0.00 0.01 0.01 59 1011.9
20260507133859 48 258 1.0 1.0 0.00 0.01 0.01 59 1012.0
20260507133354 47 301 3.0 3.0 0.00 0.01 0.01 60 1012.1
20260507132854 47 320 5.0 6.0 0.00 0.01 0.01 59 1011.9
20260507132349 47 317 0.0 1.0 0.00 0.01 0.01 60 1011.8
20260507131846 46 339 6.0 7.0 0.00 0.01 0.01 61 1012.2
20260507131343 46 269 4.0 6.0 0.00 0.01 0.01 62 1012.0
20260507130840 46 7 1.0 2.0 0.00 0.01 0.01 65 1012.3
20260507130337 45 314 4.0 5.0 0.00 0.01 0.01 63 1012.2
20260507125836 45 323 5.0 8.0 0.00 0.01 0.01 64 1012.1
20260507125333 45 331 6.0 7.0 0.00 0.01 0.01 65 1012.0
20260507124830 45 297 6.0 9.0 0.00 0.01 0.01 64 1012.3
20260507124326 45 306 2.0 2.0 0.00 0.01 0.01 69 1012.4
20260507123825 46 64 3.0 5.0 0.00 0.01 0.01 68 1012.2
20260507123322 45 273 0.0 0.0 0.00 0.01 0.01 72 1012.2
20260507122818 44 224 0.0 1.0 0.00 0.01 0.01 71 1012.1
20260507122314 44 332 2.0 3.0 0.00 0.01 0.01 73 1012.3
20260507121810 44 349 3.0 3.0 0.00 0.01 0.01 72 1012.2
20260507121306 44 265 1.0 1.0 0.00 0.01 0.01 77 1012.3
20260507120802 45 128 2.0 2.0 0.00 0.01 0.01 72 1012.1
20260507120259 45 233 1.0 1.0 0.00 0.01 0.01 73 1012.0
20260507115755 44 26 0.0 1.0 0.00 0.01 0.01 77 1012.1
20260507115251 43 354 1.0 1.0 0.00 0.01 0.01 80 1012.1
20260507114746 43 201 2.0 2.0 0.00 0.01 0.01 82 1012.1
20260507114244 42 242 0.0 0.0 0.00 0.01 0.01 84 1012.2
20260507113742 41 244 0.0 1.0 0.00 0.01 0.01 85 1012.1
20260507113238 41 226 0.0 1.0 0.00 0.01 0.01 86 1012.1
20260507112736 41 293 0.0 1.0 0.00 0.01 0.01 88 1011.9
20260507112233 40 239 1.0 1.0 0.00 0.01 0.01 91 1011.9
20260507111731 40 171 2.0 2.0 0.00 0.01 0.01 91 1011.9
20260507111227 40 227 1.0 1.0 0.00 0.01 0.01 92 1011.9
20260507110723 39 236 0.0 0.0 0.00 0.01 0.01 94 1012.0
20260507110220 38 296 0.0 0.0 0.00 0.01 0.01 94 1012.0
20260507105717 38 298 0.0 1.0 0.00 0.01 0.01 94 1012.1
20260507105213 38 309 0.0 1.0 0.00 0.01 0.01 94 1012.0
20260507104710 37 291 0.0 0.0 0.00 0.01 0.01 94 1012.1
20260507104207 37 299 1.0 1.0 0.00 0.01 0.01 94 1011.9
20260507103702 37 284 0.0 0.0 0.00 0.01 0.01 94 1011.7
20260507103159 37 256 0.0 0.0 0.00 0.01 0.01 94 1011.9
20260507102655 37 219 1.0 1.0 0.00 0.01 0.01 94 1011.8
20260507102152 36 190 2.0 2.0 0.00 0.01 0.01 94 1011.6
20260507101648 36 273 0.0 0.0 0.00 0.01 0.01 94 1011.5
20260507101144 36 308 1.0 1.0 0.00 0.01 0.01 94 1011.3
20260507100641 36 321 1.0 2.0 0.00 0.01 0.01 93 1011.7
20260507100140 36 307 1.0 1.0 0.00 0.01 0.01 93 1011.6
20260507095637 37 286 1.0 1.0 0.00 0.01 0.01 93 1011.6
20260507095133 37 231 1.0 1.0 0.00 0.01 0.01 92 1011.5
20260507094630 37 292 0.0 0.0 0.00 0.01 0.01 91 1011.4
20260507094127 37 292 0.0 0.0 0.00 0.01 0.01 91 1011.6
20260507093624 38 296 1.0 1.0 0.00 0.01 0.01 90 1011.7
20260507093123 38 262 0.0 1.0 0.00 0.01 0.01 90 1011.8
20260507092619 38 268 0.0 0.0 0.00 0.01 0.01 90 1011.7
20260507092115 38 272 0.0 0.0 0.00 0.01 0.01 89 1011.6
20260507091612 38 264 0.0 0.0 0.00 0.01 0.01 88 1011.8
20260507091108 39 287 0.0 0.0 0.00 0.01 0.01 87 1011.6
20260507090604 39 339 1.0 1.0 0.00 0.01 0.01 86 1011.6
20260507085558 39 297 1.0 1.0 0.00 0.01 0.01 86 1011.5
20260507085055 40 323 1.0 1.0 0.00 0.01 0.01 85 1011.8
20260507084551 40 283 0.0 0.0 0.00 0.01 0.01 84 1011.6
20260507084049 41 273 0.0 0.0 0.00 0.01 0.01 83 1011.7
20260507083544 41 295 0.0 0.0 0.00 0.01 0.01 82 1011.6
20260507083037 41 313 1.0 1.0 0.00 0.01 0.01 81 1011.6
20260507082532 41 4 2.0 3.0 0.00 0.01 0.01 81 1011.5
20260507082029 41 312 3.0 3.0 0.00 0.01 0.01 80 1011.5
20260507081525 42 356 1.0 1.0 0.00 0.01 0.01 81 1011.3
20260507081022 42 295 3.0 3.0 0.00 0.01 0.01 81 1011.7
20260507080518 42 297 1.0 1.0 0.00 0.01 0.01 83 1011.5
20260507080015 42 278 1.0 1.0 0.00 0.01 0.01 83 1011.6
20260507075510 42 333 1.0 1.0 0.00 0.01 0.01 83 1011.5
20260507075007 42 286 1.0 1.0 0.00 0.01 0.01 84 1011.7
20260507074503 42 57 2.0 2.0 0.00 0.01 0.01 84 1011.6
20260507074002 42 267 0.0 0.0 0.00 0.01 0.01 83 1011.5
20260507073458 42 303 1.0 1.0 0.00 0.01 0.01 83 1011.4
20260507072954 42 305 0.0 0.0 0.00 0.01 0.01 83 1011.6
20260507072452 42 14 1.0 1.0 0.00 0.01 0.01 82 1011.4
20260507071949 42 73 1.0 2.0 0.00 0.01 0.01 83 1011.4
20260507071446 42 5 1.0 2.0 0.00 0.01 0.01 83 1011.6
20260507070943 42 53 0.0 1.0 0.00 0.01 0.01 83 1011.5
20260507070440 43 6 4.0 5.0 0.00 0.01 0.01 83 1011.4
20260507065936 43 35 1.0 2.0 0.00 0.01 0.01 84 1011.5
20260507065433 43 358 5.0 5.0 0.00 0.01 0.01 85 1011.5
20260507064930 43 359 5.0 6.0 0.00 0.01 0.01 85 1011.6
20260507064429 43 280 2.0 3.0 0.00 0.01 0.01 86 1011.4
20260507063926 44 351 2.0 2.0 0.00 0.01 0.01 86 1011.3
20260507063423 44 354 6.0 7.0 0.00 0.01 0.01 87 1011.1
20260507062920 44 351 4.0 5.0 0.00 0.01 0.01 90 1010.9
20260507062417 44 8 3.0 3.0 0.00 0.01 0.01 92 1011.1
20260507061914 44 316 3.0 5.0 0.00 0.01 0.01 94 1011.3
20260507061413 44 327 1.0 2.0 0.00 0.01 0.01 95 1011.0
20260507060911 44 293 2.0 3.0 0.00 0.01 0.01 96 1011.0
20260507060407 44 276 0.0 0.0 0.00 0.01 0.01 96 1011.0
20260507055904 44 234 1.0 1.0 0.00 0.01 0.01 96 1010.9
20260507055359 44 281 0.0 1.0 0.00 0.01 0.01 96 1010.6
20260507054856 44 262 0.0 0.0 0.00 0.01 0.01 96 1010.4
20260507054352 44 251 0.0 0.0 0.00 0.01 0.01 96 1010.5
20260507053849 44 255 0.0 0.0 0.00 0.01 0.01 96 1010.8
20260507053347 44 248 0.0 0.0 0.00 0.01 0.01 96 1010.7